Regional Weather Roundup
Issued by NWS

Home | Current Version | Previous Version | Text Only | Print | Product List | Glossary Off
Versions: 1 2 3 4 5 6 7 8 9 10 11 12 13 14 15 16 17 18 19 20 21 22 23 24 25 26 27 28 29 30 31 32 33 34 35 36 37 38 39 40 41 42 43 44 45 46 47 48 49 50

228
ASUS43 KFSD 220702
RWRSD

WEATHER ROUNDUP FOR SOUTH DAKOTA
NATIONAL WEATHER SERVICE SIOUX FALLS SD
100 AM CST WED NOV 22 2017

NOTE: "FAIR" INDICATES FEW OR NO CLOUDS BELOW 12,000 FEET WITH NO
SIGNIFICANT WEATHER AND/OR OBSTRUCTIONS TO VISIBILITY.


SDZ001>005-009-010-012>017-220800-
NORTHWEST AND NORTH CENTRAL SOUTH DAKOTA

CITY           SKY/WX    TMP DP  RH WIND       PRES   REMARKS
BUFFALO          N/A     26  17  68 S12       30.03F WCI  16
FAITH            N/A     17   8  67 S12       30.17F WCI   4
MOBRIDGE       CLOUDY    15   9  76 SE6       30.23F WCI   6
$$

SDZ012>016-024>037-041>051-057-063-072>074-220800-
SOUTHWEST AND SOUTH CENTRAL SOUTH DAKOTA

CITY           SKY/WX    TMP DP  RH WIND       PRES   REMARKS
RAPID CTY ARPT CLOUDY    24  17  74 SE5       30.14F WCI  18
PIERRE         CLOUDY    14   8  77 SE5       30.28F WCI   6
CUSTER         CLOUDY    32  23  69 W5        30.13F WCI  27
ELLSWORTH AFB  CLOUDY    29  20  70 S8        30.12F WCI  21
PHILIP         CLOUDY    17  14  88 E5        30.23F WCI  10
PINE RIDGE     CLOUDY    34  27  75 CALM      30.18F
SPEARFISH      FAIR      32  27  80 CALM      30.10F
WINNER         FAIR      20  11  68 S8        30.30F WCI  10
$$

SDZ004>011-016>023-039-040-220800-
NORTHEAST SOUTH DAKOTA

CITY           SKY/WX    TMP DP  RH WIND       PRES   REMARKS
ABERDEEN       CLOUDY     2   0  91 S6        30.33F WCI  -9
WATERTOWN      CLOUDY     9   6  88 SW7       30.31R WCI  -2
BROOKINGS      CLOUDY    12   7  80 CALM      30.34R
SISSETON         N/A     12   6  77 W3        30.33F
$$

SDZ017-020-022-023-036>040-048>070-220800-
SOUTHEAST SOUTH DAKOTA

CITY           SKY/WX    TMP DP  RH WIND       PRES   REMARKS
SIOUX FALLS    CLOUDY    14   8  77 CALM      30.36F
HURON          CLEAR      9   5  84 CALM      30.35F
MITCHELL       CLOUDY    13   9  84 SW5       30.37F WCI   5
YANKTON        CLOUDY    13   8  81 S6        30.39F WCI   4
$$

ABBREVIATIONS USED IN REMARKS
   TC - TEMPERATURE IN CELSIUS
  WCI - WIND CHILL INDEX
   HX - HEAT INDEX
  VSB - VISIBILITY





USA.gov is the U.S. government's official web portal to all federal, state and local government web resources and services.